Regional Weather Roundup
Issued by NWS Portland, ME

Current Version | Previous Version | Text Only | Print | Product List | Glossary Off
Versions: 1 2 3 4 5 6 7 8 9 10 11 12 13 14 15 16 17 18 19 20 21 22 23 24 25 26 27 28 29 30 31 32 33 34 35 36 37 38 39 40 41 42 43 44 45 46 47 48 49 50

000
ASUS41 KGYX 170706
RWRGYX
WEATHER ROUNDUP FOR MAINE AND NEW HAMPSHIRE
NATIONAL WEATHER SERVICE GRAY ME
200 AM EST SUN DEC 17 2017

MEZ002-005-006-010-012-015-018-020-021-024-026-027-029-170800-
MAINE

CITY           SKY/WX    TMP DP  RH WIND       PRES   REMARKS
PORTLAND       PTCLDY    14   7  73 W7        30.16R
SANFORD        CLEAR      4  -2  76 CALM      30.16R
BAR HARBOR     CLEAR     15   9  76 NW8       30.12R
WISCASSET      CLEAR     12   8  84 CALM      30.16R
ROCKLAND       CLEAR     15   8  73 NW7       30.13R
FRYEBURG       PTCLDY     1  -1  91 CALM      30.13R
LEWISTONAUBURN CLEAR      8   4  83 N5        30.14R
AUGUSTA        CLEAR     14   5  67 CALM      30.12R
WATERVILLE     CLEAR      9   4  80 CALM      30.07R
BANGOR         CLEAR     13   7  77 NW6       30.13R
GREENVILLE       N/A      7   0  73 NW14G24   29.98S WCI -10
MILLINOCKET    CLEAR     10   3  73 W7G20     30.08R
HOULTON        PTCLDY     7  -3  64 NW9       30.01R
PRESQUE ISLE   PTCLDY    -1  -6  79 W7        30.04R
FRENCHVILLE    CLEAR     -2  -7  79 NW10      29.97R WCI -19
CARIBOU        PTCLDY     1  -7  68 NW7       30.00R
$$

NHZ002-005-008-009-011-012-014-170800-
NEW HAMPSHIRE

CITY           SKY/WX    TMP DP  RH WIND       PRES   REMARKS
PORTSMOUTH     CLEAR     17   6  60 W8        30.16R
ROCHESTER      CLEAR     16   6  65 NW10      30.14R WCI   4
NASHUA         PTCLDY    11   9  92 NW5       30.20R
MANCHESTER     PTCLDY    17   7  64 NW8       30.17R
CONCORD        PTCLDY    15   7  70 W7        30.18R
LACONIA        CLEAR     13   6  74 W6        30.15R
PLYMOUTH       FAIR      14   6  72 W8        30.16R
BERLIN         CLOUDY    12   6  77 NW3       30.12R
WHITEFIELD     CLEAR     -1  -3  91 CALM      30.14R
JAFFREY        CLEAR      5   2  87 S3        30.13R
KEENE          CLOUDY     3   0  87 CALM      30.20R
LEBANON        PTCLDY     0  -5  79 NE3       30.19R
MT WASHINGTON  FOG       -6  -6 100 NW33        N/A  VSB 1/8 WCI -35
$$

VTZ005-007-008-170800-
VERMONT

CITY           SKY/WX    TMP DP  RH WIND       PRES   REMARKS
ST JOHNSBURY     N/A      3   1  91 MISG      30.18R
MONTPELIER     CLOUDY     0  -2  91 CALM      30.19R
BURLINGTON     CLOUDY     8   4  83 E5        30.24R
$$

MAZ007-012-024-CTZ003-RIZ002-NYZ038-NYZ072-170800-
SOUTHERN NEW ENGLAND AND NY

CITY           SKY/WX    TMP DP  RH WIND       PRES   REMARKS
BOSTON         CLEAR     23   7  50 W10       30.20R WCI  12
WORCESTER      CLEAR     16   4  59 W6        30.13R
NANTUCKET      CLEAR     27  13  55 NW15      30.18R WCI  15
PROVIDENCE     CLEAR     22  13  68 W8        30.22R
HARTFORD       CLEAR     19  11  70 W7        30.22R
ALBANY         PTCLDY    14   8  77 CALM      30.24R
NEW YORK CITY  CLOUDY    35  20  54 NW7       30.23R
$$

ANZ081-ANZ082-ANZ150-NHZ014-MEZ023>029-170800-
COASTAL MARINE OBSERVATIONS

STATION/POSITION TIME  TEMP    WIND        PRES    WAVE
                       AIR SEA DIR/SP/G            HT/PER
                 (UTC) (F)     (DEG/KT/KT) (MB)    (FT/S)
MOUNT DESERT ROC 0600   25     310/ 24/ 26 1018.0R
MATINICUS ROCK   0600   23     320/ 23/ 26 1018.6R
ISLE OF SHOALS   0600   22     310/ 18/ 21 1020.6R
JEFFREYS LEDGE   0636      47                N/A     4/ 5
GEORGES BANK BUO 0550   36 51              1016.4   14/ 9
$$

.............KEY..............
   WCI - WIND CHILL
   TC  - TEMPERATURE IN CELSIUS
   VSB - VISIBILITY IN MILES
   HX  - HEAT INDEX
   FAIR- INDICATES FEW OR NO CLOUDS BELOW 12,000 FT, WITH NO
         SIGNIFICANT WEATHER AND/OR OBSTRUCTIONS TO VISIBILITY.






USA.gov is the U.S. government's official web portal to all federal, state and local government web resources and services.